Waarnemingen

Advertentie
Mijn weer
Girona/Costa Brava, Spanje (8184): temperatuur & dauwpunt: 22.05.2018 12:00:00 - 28.05.2018 12:00:00 (CEST)Girona/Costa Brava, Spanje (8184): windsnelheid: 22.05.2018 12:00:00 - 28.05.2018 12:00:00 (CEST)Girona/Costa Brava, Spanje (8184): windrichting: 22.05.2018 12:00:00 - 28.05.2018 12:00:00 (CEST)Girona/Costa Brava, Spanje (8184): luchtdruk: 22.05.2018 12:00:00 - 28.05.2018 12:00:00 (CEST)Girona/Costa Brava, Spanje (8184): zicht: 22.05.2018 12:00:00 - 28.05.2018 12:00:00 (CEST)
Datum & Tijd tt [°C] td [°C] ff [km/u] ff [kn] dd ppp [hPa] vv [km]
28.05.2018 12:00:00 - - - - - - -
28.05.2018 11:00:00 22,6 17,0 9 5 NNO 1012,3 25
28.05.2018 10:00:00 20,0 16,6 8 4 NNO 1012,6 -
28.05.2018 09:00:00 18,9 15,8 4 2 N 1012,4 -
28.05.2018 08:00:00 18,2 15,6 0 0 N 1011,7 25
28.05.2018 07:00:00 17,6 14,7 8 4 NNW 1011,6 -
28.05.2018 06:00:00 17,8 14,8 9 5 NO 1011,9 -
28.05.2018 05:00:00 18,0 14,8 9 5 NNO 1011,7 -
28.05.2018 04:00:00 18,5 14,2 8 4 O 1012,1 -
28.05.2018 03:00:00 18,5 14,2 13 7 NNO 1012,1 -
28.05.2018 02:00:00 17,5 14,0 16 9 NNO 1012,2 25
28.05.2018 01:00:00 17,6 13,8 18 10 N 1012,4 -
28.05.2018 00:00:00 18,2 13,9 21 11 NNO 1013,2 -
27.05.2018 23:00:00 18,9 14,0 22 12 NO 1013,0 30
27.05.2018 22:00:00 18,1 14,6 9 5 NNO 1012,2 -
27.05.2018 21:00:00 20,0 14,4 9 5 N 1011,8 -
27.05.2018 20:00:00 21,2 14,8 15 8 NNO 1011,5 30
27.05.2018 19:00:00 22,5 14,9 15 8 ONO 1011,7 -
27.05.2018 18:00:00 22,7 14,4 31 17 NO 1011,5 -
27.05.2018 17:00:00 24,2 14,0 26 14 NO 1010,9 30
27.05.2018 16:00:00 24,1 15,2 29 16 NO 1011,2 -
27.05.2018 15:00:00 24,8 15,8 24 13 NO 1011,6 -
27.05.2018 14:00:00 23,3 15,4 22 12 NO 1012,3 30
27.05.2018 13:00:00 23,8 16,2 18 10 NO 1012,2 -
27.05.2018 12:00:00 23,2 16,3 16 9 NO 1012,8 -
27.05.2018 11:00:00 22,0 15,8 22 12 NNO 1013,2 50
27.05.2018 10:00:00 21,4 14,4 18 10 NNO 1013,0 -
27.05.2018 09:00:00 19,3 14,2 8 4 NNO 1013,3 -
27.05.2018 08:00:00 16,2 13,6 9 5 NNO 1013,2 60
27.05.2018 07:00:00 16,2 13,1 16 9 N 1013,1 -
27.05.2018 06:00:00 15,1 14,8 11 6 NNO 1013,1 -
27.05.2018 05:00:00 15,6 15,4 15 8 NNO 1013,2 -
27.05.2018 04:00:00 14,8 14,3 15 8 N 1013,9 -
27.05.2018 03:00:00 15,6 14,1 15 8 N 1014,5 -
27.05.2018 02:00:00 16,0 14,7 11 6 N 1015,0 -
27.05.2018 01:00:00 15,4 13,2 11 6 N 1015,7 -
27.05.2018 00:00:00 15,9 13,6 8 4 NW 1015,6 -
26.05.2018 23:00:00 16,6 13,8 2 1 NO 1015,5 -
26.05.2018 22:00:00 17,5 14,0 5 3 N 1015,0 -
26.05.2018 21:00:00 19,8 14,5 5 3 ZO 1014,6 -
26.05.2018 20:00:00 21,5 13,3 5 3 ZO 1014,5 -
26.05.2018 19:00:00 23,6 13,8 9 5 OZO 1014,1 -
26.05.2018 18:00:00 23,5 14,9 9 5 ZO 1014,7 -
26.05.2018 17:00:00 24,1 15,5 15 8 ZO 1014,7 -
26.05.2018 16:00:00 24,1 14,4 18 10 ZO 1014,9 -
26.05.2018 15:00:00 24,6 12,1 22 12 ZO 1015,3 -
26.05.2018 14:00:00 25,2 12,4 22 12 ZO 1015,3 -
26.05.2018 13:00:00 24,0 15,1 15 8 O 1015,4 -
26.05.2018 12:00:00 23,0 17,3 11 6 NO 1016,0 -
26.05.2018 11:00:00 21,6 17,1 11 6 NNO 1015,9 -
26.05.2018 10:00:00 20,5 17,2 13 7 NNO 1016,0 -
26.05.2018 09:00:00 18,5 16,3 11 6 NNO 1015,8 -
26.05.2018 08:00:00 15,9 15,1 13 7 NNO 1015,3 30
26.05.2018 07:00:00 15,1 14,6 5 3 WNW 1015,5 -
26.05.2018 06:00:00 15,2 14,6 8 4 N 1014,7 -
26.05.2018 05:00:00 15,1 14,2 11 6 N 1014,7 25
26.05.2018 04:00:00 14,9 13,8 9 5 NNO 1015,5 -
26.05.2018 03:00:00 14,3 12,0 8 4 NNW 1015,4 -
26.05.2018 02:00:00 14,9 13,1 0 0 N 1015,2 25
26.05.2018 01:00:00 14,4 12,3 0 0 N 1015,4 -
26.05.2018 00:00:00 14,8 12,4 4 2 N 1015,4 -
25.05.2018 23:00:00 15,3 12,1 2 1 NW 1015,5 25
25.05.2018 22:00:00 16,9 12,8 4 2 NW 1014,9 -
25.05.2018 21:00:00 19,3 13,2 5 3 O 1014,2 -
25.05.2018 20:00:00 21,9 9,4 9 5 ZZO 1013,9 30
25.05.2018 19:00:00 23,2 9,9 11 6 ZO 1013,7 -
25.05.2018 18:00:00 23,3 10,2 11 6 ZZO 1014,1 -
25.05.2018 17:00:00 23,2 10,0 15 8 ZZO 1014,5 35
25.05.2018 16:00:00 24,8 10,9 16 9 ZO 1014,7 -
25.05.2018 15:00:00 25,3 10,3 13 7 ZO 1014,9 -
25.05.2018 14:00:00 24,3 12,5 11 6 ZZO 1015,2 40
25.05.2018 13:00:00 22,6 13,2 11 6 ONO 1015,2 -
25.05.2018 12:00:00 24,1 12,8 4 2 Z 1015,6 -
25.05.2018 11:00:00 21,8 13,7 4 2 N 1015,4 35
25.05.2018 10:00:00 20,4 14,6 5 3 O 1015,5 -
25.05.2018 09:00:00 17,9 14,0 4 2 Z 1016,2 -
25.05.2018 08:00:00 14,8 13,1 0 0 N 1015,9 16
25.05.2018 07:00:00 11,9 11,3 5 3 W 1015,9 -
25.05.2018 06:00:00 11,5 11,0 9 5 NNO 1015,2 -
25.05.2018 05:00:00 12,1 11,3 0 0 N 1015,6 11
25.05.2018 04:00:00 12,4 11,1 0 0 N 1015,8 -
25.05.2018 03:00:00 13,1 11,8 2 1 W 1016,0 -
25.05.2018 02:00:00 14,0 12,4 2 1 OZO 1016,2 21
25.05.2018 01:00:00 14,6 12,5 0 0 N 1016,4 -
25.05.2018 00:00:00 15,6 13,3 0 0 N 1016,4 -
24.05.2018 23:00:00 16,0 13,1 0 0 N 1016,4 -
24.05.2018 22:00:00 17,4 12,7 9 5 ZW 1016,1 -
24.05.2018 21:00:00 19,4 12,1 15 8 Z 1015,4 -
24.05.2018 20:00:00 21,6 12,4 22 12 Z 1015,2 30
24.05.2018 19:00:00 23,2 11,8 26 14 Z 1014,5 -
24.05.2018 18:00:00 24,1 12,9 28 15 Z 1014,5 -
24.05.2018 17:00:00 25,5 13,8 26 14 Z 1014,2 25
24.05.2018 16:00:00 25,6 12,8 31 17 Z 1014,4 -
24.05.2018 15:00:00 26,5 13,0 24 13 Z 1014,5 -
24.05.2018 14:00:00 26,1 15,4 26 14 Z 1014,9 25
24.05.2018 13:00:00 26,0 15,9 18 10 Z 1015,4 -
24.05.2018 12:00:00 24,7 17,5 15 8 Z 1016,1 -
24.05.2018 11:00:00 22,9 16,7 8 4 Z 1016,3 25
24.05.2018 10:00:00 21,1 16,7 9 5 Z 1016,7 -
24.05.2018 09:00:00 17,3 15,3 8 4 ZZW 1017,0 -
24.05.2018 08:00:00 16,6 15,3 4 2 ZZW 1016,9 3,0
24.05.2018 07:00:00 14,8 14,3 0 0 N 1016,6 -
24.05.2018 06:00:00 14,1 13,6 8 4 ZZW 1016,4 -
24.05.2018 05:00:00 14,4 13,9 0 0 N 1016,3 -
24.05.2018 04:00:00 14,2 13,9 0 0 N 1016,3 -
24.05.2018 03:00:00 14,2 13,7 4 2 W 1016,6 -
24.05.2018 02:00:00 14,9 14,4 4 2 Z 1017,1 2,0
24.05.2018 01:00:00 15,7 15,1 4 2 ZZW 1017,7 -
24.05.2018 00:00:00 16,3 15,2 8 4 ZZW 1017,8 -
23.05.2018 23:00:00 17,4 15,7 4 2 ZZO 1017,8 15
23.05.2018 22:00:00 17,9 15,7 8 4 ZZO 1017,4 -
23.05.2018 21:00:00 18,6 16,0 15 8 Z 1016,5 -
23.05.2018 20:00:00 19,8 15,8 15 8 ZZW 1016,0 35
23.05.2018 19:00:00 22,2 15,2 13 7 Z 1015,4 -
23.05.2018 18:00:00 23,0 13,9 16 9 ZZO 1015,7 -
23.05.2018 17:00:00 23,1 13,4 21 11 Z 1015,5 30
23.05.2018 16:00:00 24,1 12,7 26 14 Z 1015,4 -
23.05.2018 15:00:00 24,8 14,1 26 14 Z 1015,7 -
23.05.2018 14:00:00 25,3 14,2 22 12 Z 1016,1 40
23.05.2018 13:00:00 25,7 14,6 13 7 Z 1016,1 -
23.05.2018 12:00:00 24,8 12,5 9 5 ZZW 1016,3 -
23.05.2018 11:00:00 24,2 16,4 4 2 ZO 1016,5 55
23.05.2018 10:00:00 21,7 16,3 0 0 N 1016,4 -
23.05.2018 09:00:00 18,3 14,9 0 0 N 1016,6 -
23.05.2018 08:00:00 15,4 13,9 0 0 N 1016,6 -
23.05.2018 07:00:00 12,5 12,2 2 1 W 1016,4 -
23.05.2018 06:00:00 11,3 10,8 0 0 N 1016,3 -
23.05.2018 05:00:00 11,6 11,1 5 3 W 1016,3 -
23.05.2018 04:00:00 12,4 11,8 0 0 N 1016,1 -
23.05.2018 03:00:00 12,7 12,1 5 3 WZW 1016,2 -
23.05.2018 02:00:00 12,9 12,3 0 0 N 1016,3 -
23.05.2018 01:00:00 13,7 13,1 0 0 N 1016,2 -
23.05.2018 00:00:00 14,4 13,8 0 0 N 1016,0 -
22.05.2018 23:00:00 15,8 14,0 8 4 ZZW 1015,8 -
22.05.2018 22:00:00 17,0 15,0 8 4 ZZW 1015,2 -
22.05.2018 21:00:00 18,7 15,9 5 3 ZW 1014,5 -
22.05.2018 20:00:00 19,8 16,2 5 3 ZZW 1013,9 -
22.05.2018 19:00:00 19,6 16,2 0 0 N 1014,0 -
22.05.2018 18:00:00 - - - - - - -
22.05.2018 17:00:00 15,9 14,6 4 2 NNW 1013,9 -
22.05.2018 16:00:00 15,9 13,7 9 5 NNW 1014,3 -
22.05.2018 15:00:00 23,3 14,5 11 6 ZZO 1013,0 -
22.05.2018 14:00:00 24,1 15,5 16 9 ZZO 1012,7 -
22.05.2018 13:00:00 22,8 12,3 4 2 ZW 1012,8 -
22.05.2018 12:00:00 23,1 13,1 5 3 N 1012,7 -

tt = temperatuur
td = dauwpunt
ff = windsnelheid
dd = windrichting
ppp = luchtdruk
vv = zicht

Weerstations in de omgeving